2022 SG
ephemeris date magn radius delta ra dec elong phase
Today20 Oct 202526.50.830 AU1.524 AU11h41m-02°26'30.1°37.0°
2022 SG - 2025-10-20
astro.vanbuitenen.nl


 
-1 year
-1 month
-1 day
Now
+1 day
+1 month
+1 year

The interactive orbit chart above shows the body's path through the solar system and its position at the given date. Green and blue lines are shown perpendicular to the ecliptic plane: Green if the path is above the ecliptic plane, blue if it is below. (Left-click and drag to rotate the view; Right-click and drag to move the view; Use scroll wheel to zoom in our out.)

The orbital elements of 2022 SG are:

            e (Eccentricity)                : 0.6668188
            a (Semimajor axis)              : 2.0175390
            i (Inclination)                 : 12.28305
            Ω (Longitude of ascending node) : 177.24696
            ω (Argument of perihelion)      : 263.25915
            M (Mean anomaly)                : 312.30748
            Epoch                           : 2025 May 05

            L (Longitude of perihelion)     : 260.34969
            B (Latitude of perihelion)      : -12.19683
            P (Orbital period in years)     : 2.87            
        

The light curve chart below shows the estimated development of the minor planet's magnitude.


The all-sky chart below shows the path of the minor planet over the same period as the light curve. The current position is marked yellow.





The following chart shows the path of the minor planet in the next few days. The field of view is optimized for (~10x50) binoculars and finderscopes.




Ephemerides:
Date       Time       RA (2000)    DEC (2000)    delta   radius  elong  phase   PA    magn
2025-10-20 00:00 UT   11 41 01.7   -02 26 18     1.524    0.830   30.1   37.0   286   26.5 
2025-10-20 08:03 UT   11 42 18.6   -02 31 55     1.528    0.833   30.1   36.9   286   26.5 
2025-10-21 00:00 UT   11 44 50.1   -02 42 57     1.536    0.840   30.1   36.5   287   26.5 
2025-10-22 00:00 UT   11 48 36.0   -02 59 21     1.547    0.849   30.1   36.1   287   26.5 
2025-10-23 00:00 UT   11 52 19.5   -03 15 32     1.558    0.859   30.2   35.6   287   26.5 
2025-10-24 00:00 UT   11 56 00.6   -03 31 29     1.570    0.868   30.2   35.2   287   26.6 
2025-10-25 00:00 UT   11 59 39.3   -03 47 13     1.581    0.878   30.2   34.8   287   26.6 
2025-10-26 00:00 UT   12 03 15.7   -04 02 42     1.591    0.888   30.3   34.4   288   26.6 
2025-10-27 00:00 UT   12 06 49.8   -04 17 58     1.602    0.898   30.4   34.0   288   26.7 
2025-10-28 00:00 UT   12 10 21.7   -04 33 00     1.613    0.908   30.4   33.7   288   26.7 


    Terminology:
            
    delta:  distance between minor planet and earth in AU
    radius: distance between minor planet and sun in AU
    magn:   magnitude (brightness) estimate    
    ra:     right ascension in hours (24h = 360deg)
    dec:    declination in degrees
    elong:  elongation in degrees (angle sun-earth-minor planet)    
    phase:  phase angle in degrees (angle sun-minor planet-earth)        
    AU:     Astronomical Unit (mean distance between earth and sun: 149597870.7 km
    

Orbital elements provided by the MPC (Minor Planet Center).
Calculations by a modified version of AAPlus, a C# implementation of the AA+ project by PJ Naughter from the algorithms presented in the book "Astronomical Algorithms" by Jean Meeus.
NGC2000 dso catalog and star labels from VizieR as provided by the Strasbourg astronomical Data Center.
Tycho2 catalog from the ESO archive.